Regional Weather Roundup
Issued by NWS Cleveland, OH

Home | Current Version | Previous Version | Graphics & Text | Print | Product List | Glossary On
Versions: 1 2 3 4 5 6 7 8 9 10 11 12 13 14 15 16 17 18 19 20 21 22 23 24 25 26 27 28 29 30 31 32 33 34 35 36 37 38 39 40 41 42 43 44 45 46 47 48 49 50
971
ASUS41 KCLE 271510
RWRCLE
OHIO REGIONAL WEATHER ROUNDUP
NATIONAL WEATHER SERVICE CLEVELAND, OH
1100 AM EDT TUE JUN 27 2017

NOTE: "FAIR" INDICATES FEW OR NO CLOUDS BELOW 12,000 FEET WITH NO
SIGNIFICANT WEATHER AND/OR OBSTRUCTIONS TO VISIBILITY.

OHZ001>008-015>018-024>027-034-035-043-044-271600-
   NORTHWEST OHIO

CITY           SKY/WX    TMP DP  RH WIND       PRES   REMARKS
DEFIANCE       SUNNY     63  45  51 NW8       30.14R
FINDLAY        SUNNY     64  48  56 NW9       30.12S
TOLEDO EXPRESS SUNNY     63  44  50 NW9       30.11S
TOLEDO EXEC    SUNNY     65  45  48 NW12G18   30.12S
LIMA           MOSUNNY   62  50  64 NW8       30.13F
$$

OHZ009>014-019>023-028>033-038-089-271600-
   NORTHEAST OHIO

CITY           SKY/WX    TMP DP  RH WIND       PRES   REMARKS
CLE-HOPKINS    PTSUNNY   64  51  62 NW17      30.10R
CLE-LAKEFRONT  PTSUNNY   60  51  72 W15       30.07S
CUY CO. ARPT   PTSUNNY   61  52  72 W15       30.08R
LORAIN-ELYRIA  PTSUNNY   61  48  62 NW14G20   30.10R
ASHTABULA      CLOUDY    57  54  89 W8        30.06R
AKRON-CANTON   MOSUNNY   62  47  57 W10G20    30.09R
WOOSTER        PTSUNNY   60  48  64 W15G21    30.11R
MANSFIELD      MOSUNNY   62  48  60 NW8       30.12R
YOUNGSTOWN     LGT RAIN  56  50  80 W14G22    30.07R
$$

OHZ042-051>053-060>062-070>072-077>081-271600-
  SOUTHWEST OHIO

CITY           SKY/WX    TMP DP  RH WIND       PRES   REMARKS
CINC-COVINGTON MOSUNNY   66  50  56 NW9       30.16S
CINC-LUNKEN    SUNNY     68  50  52 NE9       30.16F
HAMILTON       SUNNY     66  49  54 W9        30.17S
DAYTON         MOSUNNY   65  49  56 NW14      30.16S
WRIGHT-PAT AFB PTSUNNY   65  51  60 NW10      30.15S
DAYTON GENERAL MOSUNNY   64  47  53 NW8       30.15S
WILMINGTON     MOSUNNY   65  50  58 CALM      30.15S
$$

OHZ036-037-039>041-045>050-054>059-063>069-073>076-082>088-271600-
  CENTRAL AND SOUTHEAST OHIO

CITY           SKY/WX    TMP DP  RH WIND       PRES   REMARKS
COLUMBUS       PTSUNNY   65  50  58 W9G16     30.13S
OSU AIRPORT    PTSUNNY   63  50  62 NW14      30.13S
BOLTON FIELD   PTSUNNY   63  50  63 NW8G16    30.15S
RICKENBACK AFB PTSUNNY   64  50  59 NW7       30.14S
NEWARK         PTSUNNY   65  46  50 NW9       30.13S
MARION         MOSUNNY   63  47  55 W10       30.13S
LANCASTER      MOSUNNY   61  49  64 NW9       30.15S
ZANESVILLE     MOSUNNY   64  49  57 NW14      30.13S
NEW PHILLY     NOT AVBL
$$




USA.gov is the U.S. government's official web portal to all federal, state and local government web resources and services.